#timestamp,LO_Frequency,Hit,StdDev 
1542981615.4,286046995.1,N
1542981635.2,286046997.6,N
1542981655.0,286046997.8,N
1542981656.0,286046997.8,N
1542981675.8,286046998.9,N
1542981695.6,286047001.0,N
1542981715.5,286046999.9,N
1542981735.3,286046997.1,N
1542981755.1,286046998.5,N
1542981775.9,286046999.2,N
1542981795.7,286046997.0,N
1542981815.6,286046997.0,N
1542981835.4,286046996.9,N
1542981855.2,286046997.4,N
1542981875.1,286046995.0,N
1542981876.0,286046995.0,N
1542981895.8,286046995.8,N
1542981915.7,286046995.7,N
1542981935.5,286046993.8,N
1542981955.3,286046996.0,N
1542981975.2,286046993.3,N
1542981995.0,286046997.9,N
1542981995.9,286046997.9,N
1542982015.7,286046993.6,N
1542982035.6,286046991.9,Y
1542982055.4,286046998.0,P
1542982075.3,286046997.2,P
1542982095.1,286046997.8,P
1542982115.8,286046999.4,N
1542982135.7,286046996.9,Y
1542982155.5,286047000.4,P
1542982175.4,286047000.1,N
1542982195.2,286047004.0,P
1542982215.0,286047005.5,N
1542982215.9,286047005.5,N
1542982235.8,286047007.0,N
1542982255.6,286047006.5,N
1542982275.4,286047008.5,N
1542982295.3,286047009.5,N
1542982315.1,286047012.3,Y
1542982335.9,286047007.9,P
1542982355.7,286047011.8,P
1542982375.5,286047013.2,P
1542982395.4,286047015.2,Y
1542982415.2,286047002.9,P
1542982435.1,286047005.6,N
1542982436.0,286047005.6,N
1542982455.8,286047005.4,N
1542982475.6,286047003.3,N
1542982495.5,286047001.8,N
1542982515.3,286047002.3,N
1542982535.1,286047000.0,N
1542982555.9,286047000.2,N
1542982575.7,286047000.7,N
1542982595.6,286047000.8,N
1542982615.4,286046996.5,N
1542982635.2,286046995.4,N
1542982655.1,286046996.0,N
1542982656.0,286046996.0,N
1542982675.8,286046998.0,N
1542982695.7,286046998.2,N
1542982715.5,286047000.0,N
1542982735.3,286047001.2,N
1542982755.2,286046998.9,N
1542982775.0,286046999.0,N
1542982775.9,286046999.0,N
1542982795.8,286047000.9,N
1542982815.6,286047000.5,N
1542982835.4,286047000.2,N
1542982855.3,286047004.2,N
1542982875.1,286047003.6,N
1542982895.8,286047001.7,N
1542982915.7,286047003.9,N
1542982935.5,286047003.5,N
1542982955.4,286047004.0,N
1542982975.2,286047003.8,N
1542982995.0,286046999.7,N
1542982995.9,286046999.7,N
1542983015.8,286046998.5,N
1542983035.6,286046997.2,N
1542983055.5,286046993.8,N
1542983075.3,286046993.6,N
1542983095.1,286046995.2,N
1542983115.9,286046995.6,N
1542983135.7,286046997.4,N
1542983155.5,286046997.0,N
1542983175.4,286046998.9,N
1542983195.2,286047000.8,N
1542983215.1,286047000.0,N
1542983216.0,286047000.0,N
1542983235.8,286047000.2,N
1542983255.6,286047002.7,N
1542983275.5,286046999.9,N
1542983295.3,286046999.7,N
1542983315.1,286047002.2,N
1542983335.9,286047002.6,N
1542983355.7,286047002.5,N
1542983375.6,286047004.4,N
1542983395.4,286047002.5,N
1542983415.2,286047002.5,N
1542983435.1,286046999.8,N
1542983436.0,286046999.8,N
1542983455.8,286047000.5,N
1542983475.7,286046999.3,N
1542983495.5,286046998.3,N
1542983515.3,286046998.2,N
1542983535.2,286046997.0,N
1542983555.9,286046994.2,N
1542983575.7,286046994.3,N
1542983595.6,286046992.2,N
1542983615.4,286046994.5,N
1542983635.3,286046994.1,N
1542983655.1,286046991.7,N
1542983656.0,286046991.7,N
1542983675.8,286046992.7,N
1542983695.7,286046991.4,N
1542983715.5,286046990.7,N
1542983735.3,286046991.6,N
1542983755.2,286046991.3,N
1542983775.0,286046990.7,N
1542983775.9,286046990.7,N
1542983795.8,286046990.4,N
1542983815.6,286046992.9,N
1542983835.4,286046992.5,N
1542983855.3,286046991.8,N
1542983875.1,286046993.5,N
1542983895.8,286046996.2,N
1542983915.7,286046994.8,N
1542983935.5,286046993.5,N
1542983955.4,286046998.0,N
1542983975.2,286046993.4,N
1542983995.0,286046993.5,N
1542983995.9,286046993.5,N
1542984015.8,286046995.4,N
1542984035.6,286046996.4,N
1542984055.4,286046994.6,N
1542984075.3,286046993.2,Y
1542984095.1,286046997.3,P
1542984115.9,286046996.6,N
1542984135.7,286046996.3,N
1542984155.5,286046994.0,Y
1542984175.4,286046996.7,P
1542984195.2,286046995.6,P
1542984215.0,286046995.0,P
1542984216.0,286046995.0,Y
1542984235.8,286047001.1,P
1542984255.6,286046999.9,N
1542984275.5,286047000.0,N
1542984295.3,286046999.4,N
1542984315.1,286047002.8,N
1542984335.9,286046998.6,N
1542984355.7,286047000.8,N
1542984375.5,286046999.7,N
1542984395.4,286047001.4,N
1542984415.2,286047004.1,N
1542984435.1,286047005.2,N
1542984436.0,286047005.2,N
1542984455.8,286047004.6,N
1542984475.6,286047005.3,N
1542984495.5,286047001.4,N
1542984515.3,286047003.2,N
1542984535.1,286047003.4,N
1542984555.9,286047005.2,N
1542984575.7,286047005.7,N
1542984595.6,286047005.7,N
1542984615.4,286047004.7,N
1542984635.2,286047004.6,N
1542984655.1,286047005.0,N
1542984656.0,286047005.0,N
1542984675.8,286047004.7,N
1542984695.6,286047006.4,N
1542984715.5,286047009.2,Y
1542984735.3,286047002.2,P
1542984755.2,286047004.3,P
1542984775.9,286047004.1,P
1542984795.7,286047004.3,Y
1542984815.6,286046999.0,P
1542984835.4,286047000.3,N
1542984855.2,286047001.9,N
1542984875.1,286047000.1,N
1542984876.0,286047000.1,N
1542984895.8,286047000.8,N
1542984915.7,286046998.8,N
1542984935.5,286047001.0,N
1542984955.3,286046998.6,N
1542984975.2,286047001.8,N
1542984995.0,286047003.6,N
1542984995.9,286047011.9,Y
1542985015.8,286047004.6,P
1542985035.6,286047007.3,P
1542985055.4,286047004.9,N
1542985075.3,286047005.8,N
1542985095.1,286047004.6,N
1542985115.9,286047007.4,Y
1542985135.7,286047000.1,P
1542985155.5,286047000.4,N
1542985175.4,286047002.2,N
1542985195.2,286047002.8,N
